Weather in Tuapse

Russia / Krasnodar Krai     44°05′44″N   39°04′24″E
temp.,
°C
wind,
m/s
gust,
m/s
humid.,
%
clouds,
%
prec.,
mm/h
press.,
hPa
HPBL,
m
27 october, wed
wed2700:00+11ne32610 0.0 1028381
03:00+11nne32620 0.0 1027328
06:00+12ne21610 0.0 1026342
09:00+12n22580 0.0 1026338
12:00+13wnw21530 0.0 1025274
15:00+14nw33530 0.0 1024366
18:00+15nw54530 0.0 1023420
21:00+14nnw33550 0.0 1023542
28 october, thu
thu2800:00+14nw22590 0.0 1023506
03:00+14wnw12611 0.0 1024748
06:00+14wsw236233 0.0 10241006
09:00+14ssw336317 0.0 10251018
12:00+14ssw446276 0.0 10241042
15:00+14w3364100 0.1 1024714
18:00+14sw225794 0.0 1023766
21:00+14w115699 0.1 1024866
29 october, fri
fri2900:00+14nnw005869 0.0 1023844
03:00+14ne116099 0.1 1023866
06:00+13ne326798 0.1 1024529
09:00+13ne33665 0.1 1024362
12:00+13nw22580 0.0 1024404
15:00+15nnw34530 0.0 1023912
18:00+15ne65565 0.0 1023676
21:00+14ene44606 0.0 1024556
30 october, sat
sat3000:00+13ene43610 0.0 1024369
03:00+13ne43605 0.0 1025288
06:00+13ne43629 0.0 1025247
09:00+13ne436275 0.0 1026223
12:00+15n3355100 0.0 1025303
15:00+16nne665683 0.0 1024360
18:00+16ne56585 0.0 1024275
21:00+15ne44620 0.0 1024200
31 october, sun
sun3100:00+15ne44614 0.0 1024164
03:00+15nne54600 0.0 1022167
06:00+15nne4461100 0.0 1021179
09:00+15nne435897 0.0 1021194
12:00+17se125188 0.0 1020236
15:00+18se1154100 0.0 1019139
18:00+18e2259100 0.0 1019178
21:00+17e2260100 0.0 1020181